[[{"header":{"parameterUnit":"m.s-1","parameterCategory":1,"la1":30.2991,"la2":30.254,"lo1":-89.0895,"lo2":-89.0444,"dy":0.0017,"dx":0.0017,"nx":28,"ny":28,"refTime":"2025-04-24T03:00:00:Z","depth":0,"parameterNumber":2,"parameterNumberName":"U-component_of_WINDS"},"data":[0,0,0,0,0,0,0,0,0,0,0,0,0,0,0,0,0,0,0,0,0,0,0,0,0,0,0,0,0,0,0,0,0,0,0,0,0,0,0,0,0,0,0,0,0,0,0,0,0,0,0,0,0,0,0,0,0,0,-1.4745,-1.4744,0,-1.4645,-1.4644,-1.4643,-1.4592,-1.4592,-1.4592,-1.4592,-1.4484,-1.4481,-1.4479,0,0,0,0,0,0,0,0,0,0,0,0,0,-1.4887,-1.4885,-1.4745,-1.4744,-1.4742,-1.4645,-1.4644,-1.4642,-1.4592,-1.4592,-1.4592,-1.4592,-1.4485,-1.4482,-1.4478,0,0,0,0,0,0,0,0,0,0,0,0,0,-1.481,-1.4884,-1.4745,-1.4706,-1.4701,-1.4645,-1.4644,-1.4642,-1.4592,-1.4592,-1.4592,-1.4592,-1.4486,-1.4482,-1.4478,-1.4453,0,0,-1.4465,-1.4463,0,0,0,0,0,0,0,0,-1.4815,-1.4805,-1.4713,-1.4708,-1.4703,-1.4631,-1.4655,-1.4578,-1.4592,-1.4633,-1.4592,-1.4592,-1.4533,-1.4525,-1.4506,-1.4448,-1.4443,-1.4465,-1.4462,-1.446,-1.4459,0,0,0,0,0,0,0,-1.482,-1.4809,-1.4705,-1.4711,-1.4705,-1.4691,-1.468,-1.464,-1.4584,-1.4629,-1.4626,-1.4615,-1.453,-1.451,-1.4503,-1.4441,-1.4465,-1.4461,-1.4458,-1.4457,-1.4357,-1.4357,0,0,0,0,0,0,-1.4832,-1.4814,-1.4708,-1.4702,-1.476,-1.4689,-1.4676,-1.4654,-1.4585,-1.4574,-1.4615,-1.4613,-1.4517,-1.4508,-1.4499,-1.4464,-1.446,-1.4456,-1.4454,-1.4357,-1.4357,-1.4357,0,0,0,0,0,0,-1.4836,-1.4824,-1.4712,-1.4757,-1.4742,-1.4686,-1.4662,-1.4652,-1.4632,-1.4574,-1.4563,-1.4605,-1.4517,-1.4505,-1.4465,-1.446,-1.4454,-1.445,-1.4357,-1.4357,-1.4357,-1.4395,0,0,0,0,0,0,-1.484,-1.4825,-1.4816,-1.4757,-1.474,-1.4681,-1.4661,-1.465,-1.4625,-1.4622,-1.4561,-1.4551,-1.4516,-1.4471,-1.4461,-1.4454,-1.4447,-1.4357,-1.4357,-1.4357,-1.4394,-1.4396,-1.4398,0,0,0,0,0,-1.4845,-1.483,-1.4816,-1.4803,-1.4727,-1.4681,-1.4671,-1.4632,-1.4625,-1.4615,-1.4577,-1.4553,-1.4463,-1.4468,-1.4455,-1.4447,-1.4357,-1.4357,-1.4357,-1.4393,-1.4396,-1.4398,0,0,0,0,0,0,-1.4887,-1.4821,-1.4805,-1.477,-1.4732,-1.4673,-1.4658,-1.4636,-1.4598,-1.4596,-1.4548,-1.4534,-1.4498,-1.4469,-1.4476,-1.4419,-1.4407,-1.4405,-1.4439,-1.4442,-1.4444,-1.4451,-1.4444,0,0,0,0,0,-1.4893,-1.4863,-1.4806,-1.478,-1.4762,-1.4714,-1.4692,-1.4666,-1.4624,-1.4607,-1.4566,-1.4525,-1.4487,-1.4463,-1.4424,-1.439,-1.4376,-1.4378,-1.438,-1.4382,-1.438,-1.4359,-1.436,-1.4356,-1.4356,-1.4356,0,0,-1.4903,-1.4863,-1.4847,-1.4788,-1.4755,-1.4723,-1.47,-1.4668,-1.4643,-1.4601,-1.4561,-1.453,-1.448,-1.4443,-1.4425,-1.4417,-1.4378,-1.4382,-1.4384,-1.4381,-1.4359,-1.4359,-1.436,-1.4356,-1.4356,-1.4356,0,0,-1.4906,-1.4873,-1.4849,-1.4817,-1.4768,-1.4736,-1.4731,-1.4675,-1.4653,-1.4613,-1.458,-1.455,-1.4486,-1.4452,-1.4426,-1.4417,-1.4393,-1.4406,-1.4417,-1.4397,-1.4397,-1.4397,-1.4393,-1.4392,-1.4404,-1.4404,-1.4404,0,-1.4924,-1.4877,-1.4838,-1.4808,-1.4782,-1.4745,-1.4719,-1.4689,-1.463,-1.4612,-1.4606,-1.4525,-1.4489,-1.4443,-1.4441,-1.4422,-1.4412,-1.4412,-1.44,-1.44,-1.4399,-1.4395,-1.4394,-1.4406,-1.4406,-1.4406,-1.4405,0,-1.4902,-1.4869,-1.4855,-1.4801,-1.4774,-1.4746,-1.4701,-1.4678,-1.4655,-1.4623,-1.4582,-1.4538,-1.449,-1.4477,-1.4453,-1.4428,-1.4425,-1.441,-1.4397,-1.4402,-1.4397,-1.4395,-1.4409,-1.4408,-1.4407,-1.4407,0,0,-1.4927,-1.4853,-1.4848,-1.4823,-1.4767,-1.474,-1.471,-1.4665,-1.4646,-1.4607,-1.458,-1.4527,-1.4513,-1.4484,-1.4455,-1.4438,-1.4433,-1.4425,-1.4423,-1.4428,-1.4402,-1.4413,-1.4412,-1.4418,-1.4417,-1.4417,-1.4406,0,-1.4921,-1.4867,-1.4831,-1.4791,-1.476,-1.4724,-1.4697,-1.466,-1.463,-1.4598,-1.4564,-1.4527,-1.4512,-1.4494,-1.4476,-1.4438,-1.4427,-1.4438,-1.439,-1.4389,-1.4403,-1.4409,-1.4421,-1.4412,-1.4404,-1.4404,-1.4403,0,-1.4907,-1.487,-1.4827,-1.4775,-1.4761,-1.4738,-1.4694,-1.4664,-1.462,-1.4599,-1.4568,-1.454,-1.4505,-1.4496,-1.4447,-1.4456,-1.4434,-1.4413,-1.4411,-1.4404,-1.4396,-1.4402,-1.4409,-1.4407,-1.44,-1.44,-1.44,0,-1.4929,-1.4869,-1.4835,-1.4815,-1.4753,-1.4738,-1.4711,-1.4667,-1.4643,-1.4604,-1.4587,-1.4544,-1.4521,-1.4488,-1.4448,-1.4446,-1.4402,-1.4391,-1.4383,-1.4384,-1.4374,-1.4375,-1.4377,-1.4362,-1.4362,-1.4362,-1.4362,0,-1.4925,-1.49,-1.4844,-1.4823,-1.4794,-1.4753,-1.4724,-1.4694,-1.4656,-1.4627,-1.4593,-1.4567,-1.4517,-1.4484,-1.4453,-1.4417,-1.4406,-1.4387,-1.4379,-1.439,-1.4392,-1.4374,-1.4373,-1.4362,-1.4362,-1.4362,-1.4362,0,-1.4944,-1.4906,-1.4867,-1.4813,-1.4798,-1.4779,-1.4731,-1.4709,-1.4678,-1.4642,-1.4632,-1.4582,-1.4542,-1.4499,-1.4444,-1.4423,-1.4388,-1.4377,-1.4403,-1.4398,-1.4393,-1.4394,-1.4382,-1.4378,-1.4367,-1.4368,-1.4368,0,-1.4944,-1.4924,-1.4868,-1.4848,-1.4823,-1.479,-1.4765,-1.4724,-1.4699,-1.4648,-1.4632,-1.459,-1.4554,-1.4491,-1.4449,-1.4406,-1.4393,-1.4393,-1.4387,-1.4398,-1.4392,-1.4394,-1.4391,-1.4394,-1.4394,-1.4395,-1.4395,0,-1.4948,-1.493,-1.4897,-1.4857,-1.4829,-1.4795,-1.4759,-1.4744,-1.4695,-1.4669,-1.4629,-1.4601,-1.4546,-1.4504,-1.4457,-1.4427,-1.4403,-1.4397,-1.4393,-1.4403,-1.4419,-1.441,-1.4407,-1.4397,-1.4397,-1.4397,-1.4397,-1.4397,-1.4957,-1.4937,-1.4895,-1.4859,-1.4828,-1.4796,-1.4773,-1.4739,-1.4705,-1.4658,-1.4636,-1.4595,-1.4551,-1.4486,-1.4457,-1.4424,-1.4417,-1.4411,-1.4409,-1.4408,-1.441,-1.4426,-1.4415,-1.4415,-1.4415,-1.4415,-1.4415,0,-1.4958,-1.493,-1.4897,-1.4849,-1.482,-1.4802,-1.4762,-1.4738,-1.4704,-1.4666,-1.4632,-1.4585,-1.4544,-1.45,-1.4456,-1.4438,-1.4425,-1.4428,-1.4428,-1.4422,-1.442,-1.4427,-1.4439,-1.4439,-1.4439,-1.4439,-1.4439,-1.4439,-1.4955,-1.4921,-1.4899,-1.4849,-1.482,-1.4781,-1.476,-1.473,-1.4699,-1.465,-1.4616,-1.4588,-1.4547,-1.4501,-1.4462,-1.445,-1.4435,-1.444,-1.4425,-1.4424,-1.4422,-1.442,-1.4427,-1.4438,-1.4438,-1.4429,-1.4429,-1.4429]},{"header":{"parameterUnit":"m.s-1","parameterCategory":1,"la1":30.2991,"la2":30.254,"lo1":-89.0895,"lo2":-89.0444,"dy":0.0017,"dx":0.0017,"nx":28,"ny":28,"refTime":"2025-04-24T03:00:00:Z","depth":0,"parameterNumber":3,"parameterNumberName":"V-component_of_WINDS"},"data":[0,0,0,0,0,0,0,0,0,0,0,0,0,0,0,0,0,0,0,0,0,0,0,0,0,0,0,0,0,0,0,0,0,0,0,0,0,0,0,0,0,0,0,0,0,0,0,0,0,0,0,0,0,0,0,0,0,0,2.1088,2.1088,0,2.1094,2.1095,2.1095,2.1118,2.1119,2.1119,2.112,2.1122,2.1122,2.1122,0,0,0,0,0,0,0,0,0,0,0,0,0,2.1094,2.1094,2.1088,2.1088,2.1088,2.1094,2.1095,2.1095,2.1118,2.1119,2.112,2.112,2.1123,2.1122,2.1122,0,0,0,0,0,0,0,0,0,0,0,0,0,2.1095,2.1094,2.1088,2.1101,2.1102,2.1094,2.1095,2.1095,2.1118,2.1119,2.112,2.112,2.1123,2.1122,2.1121,2.1101,0,0,2.1119,2.1119,0,0,0,0,0,0,0,0,2.1095,2.1095,2.1099,2.11,2.1101,2.1107,2.1098,2.1097,2.1118,2.1112,2.112,2.1121,2.1116,2.1116,2.1115,2.1101,2.1101,2.1119,2.1119,2.1119,2.1118,0,0,0,0,0,0,0,2.1095,2.1095,2.1091,2.1099,2.1101,2.1106,2.1107,2.1098,2.1109,2.1112,2.1114,2.1115,2.1117,2.1116,2.1116,2.1101,2.1119,2.1119,2.1118,2.1118,2.1071,2.107,0,0,0,0,0,0,2.1094,2.1095,2.109,2.1091,2.11,2.1105,2.1106,2.1104,2.1109,2.1111,2.1114,2.1116,2.1117,2.1116,2.1116,2.1092,2.1119,2.1118,2.1118,2.1072,2.1071,2.107,0,0,0,0,0,0,2.1094,2.1093,2.109,2.1093,2.1093,2.1104,2.1101,2.1104,2.1103,2.1111,2.1113,2.1111,2.1117,2.1117,2.1105,2.1093,2.1118,2.1117,2.1073,2.1071,2.107,2.1045,0,0,0,0,0,0,2.1094,2.1093,2.1085,2.1093,2.1093,2.108,2.1101,2.1103,2.1102,2.1104,2.1108,2.111,2.1118,2.1106,2.1104,2.1092,2.1117,2.1074,2.1072,2.1071,2.1047,2.1043,2.104,0,0,0,0,0,2.1094,2.1077,2.1085,2.1084,2.1084,2.1079,2.1079,2.109,2.1101,2.1093,2.1099,2.111,2.1095,2.1104,2.1103,2.1091,2.1075,2.1073,2.1071,2.1049,2.1044,2.104,0,0,0,0,0,0,2.1066,2.1078,2.1087,2.1073,2.1075,2.1083,2.1074,2.1084,2.1082,2.1084,2.1097,2.1098,2.1084,2.1086,2.1097,2.1071,2.1086,2.1084,2.107,2.1066,2.1062,2.1062,2.1116,0,0,0,0,0,2.1059,2.1055,2.1065,2.1051,2.1052,2.1063,2.1061,2.1069,2.1071,2.1072,2.1076,2.1077,2.1073,2.107,2.1066,2.1048,2.1049,2.1039,2.1035,2.1032,2.103,2.1021,2.1017,2.1063,2.1063,2.1063,0,0,2.1043,2.1049,2.1045,2.1046,2.1048,2.1043,2.1063,2.1056,2.1052,2.107,2.106,2.1063,2.1065,2.1051,2.1044,2.1052,2.1018,2.103,2.1027,2.1027,2.1019,2.1014,2.101,2.1062,2.1062,2.1063,0,0,2.1011,2.1015,2.1004,2.1007,2.1012,2.1019,2.1017,2.1024,2.1027,2.1018,2.1032,2.1027,2.1019,2.102,2.1019,2.099,2.1,2.0988,2.0969,2.096,2.0956,2.0953,2.0943,2.0939,2.0986,2.0986,2.0986,0,2.099,2.0983,2.0997,2.099,2.099,2.1008,2.0997,2.0999,2.1002,2.1001,2.101,2.1001,2.1004,2.099,2.0983,2.0982,2.0979,2.0987,2.0956,2.0953,2.095,2.094,2.0936,2.0984,2.0984,2.0984,2.0985,0,2.0957,2.0953,2.0943,2.0947,2.0946,2.0937,2.0949,2.0946,2.0955,2.0962,2.0952,2.0956,2.0954,2.0951,2.0959,2.0939,2.0943,2.0954,2.0969,2.0944,2.0935,2.0931,2.0982,2.0983,2.0983,2.0983,0,0,2.0907,2.092,2.0916,2.0919,2.0926,2.0922,2.0914,2.0914,2.0911,2.0913,2.0906,2.09,2.091,2.091,2.0918,2.0911,2.0887,2.0922,2.0923,2.0916,2.0866,2.0857,2.0853,2.0895,2.0894,2.0893,2.0865,0,2.0876,2.0865,2.0878,2.0862,2.0858,2.0877,2.087,2.0873,2.0879,2.0876,2.0882,2.0878,2.0892,2.0892,2.0886,2.0892,2.0877,2.0894,2.0888,2.0887,2.0886,2.0848,2.0839,2.0812,2.0862,2.0861,2.0861,0,2.0839,2.0841,2.0826,2.0835,2.0834,2.0828,2.0829,2.0826,2.083,2.0835,2.0836,2.0847,2.0839,2.0855,2.0844,2.0855,2.0854,2.0856,2.0856,2.0855,2.0872,2.0846,2.0804,2.08,2.0856,2.0856,2.0856,0,2.0804,2.0802,2.0794,2.0795,2.0806,2.0801,2.0805,2.081,2.081,2.081,2.081,2.0809,2.0809,2.0808,2.0818,2.0829,2.0807,2.0823,2.081,2.081,2.0804,2.0804,2.0761,2.0803,2.0804,2.0804,2.0804,0,2.0769,2.0759,2.0778,2.0772,2.0762,2.0777,2.0766,2.0772,2.0777,2.0772,2.0788,2.0783,2.0797,2.0794,2.0802,2.0792,2.0792,2.0795,2.0797,2.0794,2.0793,2.0792,2.0794,2.0803,2.0803,2.0803,2.0803,0,2.0727,2.074,2.0731,2.0743,2.0746,2.0737,2.0747,2.0742,2.075,2.0744,2.0744,2.0756,2.0753,2.0764,2.0762,2.0767,2.0753,2.0758,2.0752,2.0754,2.074,2.0741,2.0694,2.0689,2.0735,2.0735,2.0734,0,2.0703,2.0696,2.0708,2.0707,2.0711,2.0708,2.0708,2.0723,2.0722,2.0728,2.0722,2.0721,2.072,2.0715,2.0723,2.0722,2.0727,2.0711,2.0727,2.0724,2.0727,2.0727,2.0727,2.0707,2.0707,2.0706,2.0706,0,2.066,2.0667,2.0667,2.067,2.067,2.0672,2.0675,2.0673,2.0689,2.0687,2.0685,2.0685,2.0685,2.0683,2.0685,2.0688,2.0699,2.0701,2.0698,2.0694,2.069,2.0692,2.0743,2.0702,2.0702,2.0702,2.0703,2.0703,2.0627,2.0622,2.063,2.0629,2.0634,2.0637,2.0633,2.0642,2.0641,2.0642,2.0651,2.0648,2.0653,2.0656,2.0659,2.0656,2.0663,2.0659,2.0657,2.0656,2.0654,2.0691,2.0656,2.0656,2.0656,2.0656,2.0656,0,2.0584,2.0591,2.059,2.0595,2.0595,2.0608,2.0613,2.0611,2.0609,2.0613,2.0613,2.0611,2.061,2.0619,2.0619,2.0615,2.0621,2.0615,2.0615,2.0616,2.0647,2.065,2.0611,2.0611,2.0611,2.0611,2.0611,2.0611,2.0562,2.0555,2.0563,2.0558,2.0564,2.0562,2.0564,2.0567,2.0571,2.0569,2.0568,2.0575,2.0581,2.0582,2.0582,2.0584,2.0584,2.0576,2.058,2.0609,2.0613,2.0618,2.062,2.0576,2.0576,2.0549,2.0549,2.0549]}]]